This is the latest recevied weather packets stored in our database for station/object KC1IUC-15. If no packets are shown the sender has not sent any weather packets the latest 10 day(s).
| Time | Temp. | Humidity | Pressure | Rain* | Wind** | Luminosity | Snow |
|---|---|---|---|---|---|---|---|
| 1777939203 | 15.56° C | 53% | 1009.3 hPa | 0 mm | - | 0 W/m² | - |
| 1777938903 | 16.11° C | 53% | 1008.9 hPa | 0 mm | - | 1 W/m² | - |
| 1777938603 | 16.11° C | 52% | 1009.3 hPa | 0 mm | - | 2 W/m² | - |
| 1777938303 | 16.11° C | 52% | 1008.9 hPa | 0 mm | - | 4 W/m² | - |
| 1777938004 | 16.67° C | 51% | 1008.9 hPa | 0 mm | - | 6 W/m² | - |
| 1777937703 | 16.67° C | 51% | 1008.9 hPa | 0 mm | - | 9 W/m² | - |
| 1777937403 | 16.67° C | 50% | 1008.6 hPa | 0 mm | - | 11 W/m² | - |
| 1777937103 | 16.67° C | 50% | 1008.6 hPa | 0 mm | - | 14 W/m² | - |
| 1777936803 | 17.22° C | 49% | 1008.6 hPa | 0 mm | - | 16 W/m² | - |
| 1777936503 | 17.22° C | 49% | 1008.6 hPa | 0 mm | - | 19 W/m² | - |
| 1777936203 | 17.22° C | 48% | 1008.6 hPa | 0 mm | - | 22 W/m² | - |
| 1777935903 | 17.78° C | 48% | 1008.2 hPa | 0 mm | - | 24 W/m² | - |
| 1777935603 | 17.78° C | 47% | 1008.2 hPa | 0 mm | - | 27 W/m² | - |
| 1777935303 | 17.78° C | 46% | 1008.2 hPa | 0 mm | - | 29 W/m² | - |
| 1777935003 | 18.33° C | 45% | 1008.2 hPa | 0 mm | - | 31 W/m² | - |
| 1777934704 | 18.33° C | 44% | 1008.2 hPa | 0 mm | - | 34 W/m² | - |
| 1777934403 | 18.89° C | 43% | 1008.2 hPa | 0 mm | - | 37 W/m² | - |
| 1777934103 | 18.89° C | 43% | 1008.6 hPa | 0 mm | - | 40 W/m² | - |
| 1777933803 | 18.89° C | 42% | 1007.9 hPa | 0 mm | - | 42 W/m² | - |
| 1777933503 | 18.89° C | 42% | 1007.9 hPa | 0 mm | - | 46 W/m² | - |
| 1777933203 | 19.44° C | 40% | 1007.9 hPa | 0 mm | - | 45 W/m² | - |
| 1777932903 | 19.44° C | 40% | 1007.9 hPa | 0 mm | - | 123 W/m² | - |
| 1777932603 | 19.44° C | 41% | 1008.2 hPa | 0 mm | - | 78 W/m² | - |
| 1777932303 | 20° C | 40% | 1008.2 hPa | 0 mm | - | 66 W/m² | - |
| 1777932003 | 20° C | 39% | 1008.2 hPa | 0 mm | - | 93 W/m² | - |
* Rain latest hour (hover to see other rain measurements)
** Current wind speed in m/s (hover to see current wind gust speed)